This is the latest recevied weather packets stored in our database for station/object NB9X. If no packets are shown the sender has not sent any weather packets the latest 10 day(s).
| Time | Temp. | Humidity | Pressure | Rain* | Wind** | Luminosity | Snow |
|---|---|---|---|---|---|---|---|
| 1777502903 | 26.67° C | 100% | 1011.6 hPa | 0 mm | - | - | - |
| 1777502603 | 26.67° C | 100% | 1011.6 hPa | 0 mm | - | - | - |
| 1777502303 | 27.22° C | 100% | 1011.6 hPa | 0 mm | - | - | - |
| 1777502034 | 26.67° C | 100% | 1011.6 hPa | 0 mm | - | - | - |
| 1777502003 | 26.67° C | 100% | 1011.6 hPa | 0 mm | - | - | - |
| 1777501703 | 27.22° C | 100% | 1011.4 hPa | 0 mm | - | - | - |
| 1777501403 | 27.78° C | 100% | 1011.5 hPa | 0 mm | - | - | - |
| 1777501103 | 28.33° C | 100% | 1011.5 hPa | 0 mm | - | - | - |
| 1777500803 | 27.78° C | 100% | 1011.5 hPa | 0 mm | - | - | - |
| 1777500503 | 28.89° C | 100% | 1011.5 hPa | 0 mm | - | - | - |
| 1777500203 | 28.89° C | 100% | 1011.5 hPa | 0 mm | - | - | - |
| 1777499903 | 29.44° C | 100% | 1011.7 hPa | 0 mm | - | - | - |
| 1777499603 | 30° C | 100% | 1011.7 hPa | 0 mm | - | - | - |
| 1777499303 | 29.44° C | 100% | 1011.7 hPa | 0 mm | - | - | - |
| 1777499003 | 29.44° C | 100% | 1011.5 hPa | 0 mm | - | - | - |
| 1777498703 | 29.44° C | 100% | 1011.6 hPa | 0 mm | - | - | - |
| 1777498403 | 30° C | 100% | 1011.8 hPa | 0 mm | - | - | - |
| 1777498103 | 28.89° C | 100% | 1011.8 hPa | 0 mm | - | - | - |
| 1777497803 | 30° C | 100% | 1011.8 hPa | 0 mm | - | - | - |
| 1777497612 | 31.11° C | 100% | 1011.9 hPa | 0 mm | - | - | - |
| 1777497503 | 29.44° C | 100% | 1011.8 hPa | 0 mm | - | - | - |
| 1777497203 | 30° C | 100% | 1011.8 hPa | 0 mm | - | - | - |
| 1777496903 | 31.11° C | 100% | 1011.9 hPa | 0 mm | - | - | - |
| 1777496604 | 30.56° C | 100% | 1012 hPa | 0 mm | - | - | - |
| 1777496303 | 30.56° C | 100% | 1012.1 hPa | 0 mm | - | - | - |
* Rain latest hour (hover to see other rain measurements)
** Current wind speed in m/s (hover to see current wind gust speed)